Flag for U.S.A. Weather past 2 weeks in Fullerton, California, U.S.A.

Now
75 °F

Scattered clouds.


Feels Like: 77 °F
Forecast: 57 / 74 °F
Wind: No wind

Location: Fullerton Municipal Airport

Current Time: Jan 26, 2015 at 11:16:54 AM

Latest Report: Jan 26, 2015 at 9:53 AM


Visibility: 10 mi

Pressure: 30.01 "Hg

Humidity: 25%

Dew point: 37 °F

Location of FullertonLocation

Historic Weather in Fullerton — Graph

°F

Fullerton temperature yesterday

Maximum temperature yesterday: 84 °F (at 11:53 AM)
Minimum temperature yesterday: 54 °F (at 5:53 AM)
Average temperature yesterday: 69 °F

Past Weeks' High & Low Weather Summary

 TemperatureHumidityPressure
High84 °F (Jan 24, 2:53 PM)96% (Jan 12, 4:53 AM)30.24 "Hg (Jan 12, 4:53 AM)
Low46 °F (Jan 16, 5:53 AM)9% (Jan 23, 2:53 PM)29.89 "Hg (Jan 20, 2:53 PM)
Average61 °F53%30.09 "Hg
* Reported Jan 11 9:00 AM — Jan 26 9:53 AM, Fullerton, Weather by CustomWeather, © 2014

Note: Actual official high and low records may vary slightly from our data, if they occured in-between our weather recording intervals... More about our weather records

Advertising

Fullerton weather history for previous 24 hours

 ConditionsComfort  
Time TempWeatherWind HumidityBarometerVisibility
9:53 AM
Jan 26
75 °FScattered clouds.No wind25%30.01 "Hg10 mi
8:53 AM70 °FPassing clouds.7 mph28%29.99 "Hg10 mi
7:53 AM68 °FOvercast.7 mph30%29.97 "Hg10 mi
6:53 AM64 °FMore clouds than sun.No wind35%29.97 "Hg10 mi
5:53 AM65 °FPassing clouds.5 mph32%29.96 "Hg10 mi
4:53 AM62 °FPassing clouds.No wind39%29.97 "Hg10 mi
3:53 AM65 °FPassing clouds.5 mph31%29.96 "Hg10 mi
2:53 AM65 °FLight rain. Passing clouds.No wind34%29.96 "Hg10 mi
1:53 AM60 °FClear.3 mph42%29.98 "Hg10 mi
12:53 AM62 °FClear.No wind37%29.99 "Hg10 mi
11:53 PM
Jan 25
64 °FClear.5 mph30%30.01 "Hg10 mi
10:53 PM63 °FClear.No wind33%30.02 "Hg10 mi
9:53 PM65 °FClear.No wind31%30.03 "Hg10 mi
8:53 PM65 °FClear.No wind32%30.02 "Hg10 mi
7:53 PM66 °FClear.No wind33%30.01 "Hg10 mi
6:53 PM69 °FClear.3 mph29%30.01 "Hg10 mi
5:53 PM72 °FClear.3 mph23%29.98 "Hg10 mi
4:53 PM76 °FSunny.5 mph21%29.96 "Hg10 mi
3:53 PM81 °FSunny.No wind16%29.93 "Hg10 mi
2:53 PM81 °FSunny.3 mph14%29.93 "Hg10 mi
1:53 PM80 °FSunny.7 mph15%29.93 "Hg10 mi
12:53 PM84 °FSunny.10 mph12%29.95 "Hg10 mi
11:53 AM84 °FSunny.16 mph11%29.98 "Hg10 mi
Weather by CustomWeather, © 2014

See weather overviewHow to use our weather pages